Location: Brahman Valley
(40.6513°N, 111.8855°W)
Time: 09:38:10
(UTC+00:00)

Tiros 1 despin weight - Pass Details

Date: 16 May 2021
Orbit: 594 x 641 km, 48.2° (Epoch: 22 June)

Event Time Altitude Azimuth Distance (km) Brightness Sun altitude
Rises 01:57:21 0° 221° (SW) 2,893 ? 6.3°
Reaches altitude 10° 01:59:42 10° 216° (SW) 1,997 ? 5.9°
Maximum altitude 02:04:07 48° 142° (SE) 833 ? 5.1°
Drops below altitude 10° 02:08:37 10° 69° (ENE) 2,027 ? 4.3°
Sets 02:11:01 0° 64° (ENE) 2,941 ? 3.9°
